Flag for Canada Weather past 2 weeks in Sanikiluaq, Nunavut, Canada

28 °F

Light snow. Mostly cloudy.

Feels Like: 16 °F
Forecast: 22 / 28 °F
Wind: 18 mph from Northwest

Location: Kuujjuarapik

Current Time: Nov 26, 2015 at 7:47:20 AM

Latest Report: Nov 26, 2015 at 7:00 AM

Visibility: 3 mi

Pressure: 29.84 "Hg

Humidity: 93%

Dew point: 27 °F

Location of SanikiluaqLocation

Historic Weather in Sanikiluaq — Graph


Sanikiluaq temperature yesterday

Maximum temperature yesterday: 27 °F (at 12:00 AM)
Minimum temperature yesterday: 21 °F (at 9:01 AM)
Average temperature yesterday: 24 °F

Past Weeks' High & Low Weather Summary

High48 °F (Nov 19, 9:00 AM)100% (Nov 14, 1:00 AM)30.50 "Hg (Nov 14, 1:00 AM)
Low14 °F (Nov 23, 10:00 PM)64% (Nov 25, 6:00 AM)29.20 "Hg (Nov 19, 2:00 PM)
Average27 °F87%29.84 "Hg
* Reported Nov 11 6:00 AM — Nov 26 6:00 AM, Sanikiluaq, Weather by CustomWeather, © 2015

Note: Actual official high and low records may vary slightly from our data, if they occured in-between our weather recording intervals... More about our weather records


Sanikiluaq weather history for previous 24 hours

Time TempWeatherWind HumidityBarometerVisibility
6:00 AM
Thu, Nov 26
27 °FLight snow. Mostly cloudy.18 mph100%29.78 "Hg1 mi
5:58 AM28 °FLight snow. Mostly cloudy.17 mph93%29.77 "Hg1 mi
5:04 AM28 °FLight snow. Overcast.15 mph93%29.72 "Hg5 mi
5:02 AM28 °FLight snow. Mostly cloudy.15 mph93%29.72 "Hg6 mi
4:04 AM28 °FLight snow. Overcast.3 mph93%29.68 "Hg2 mi
3:52 AM28 °FLight snow. Mostly cloudy.6 mph93%29.67 "Hg1 mi
3:00 AM27 °FLight snow. Overcast.14 mph93%29.66 "Hg2 mi
2:45 AM27 °FLight snow. Overcast.10 mph93%29.66 "Hg2 mi
2:00 AM25 °FLight snow. Overcast.15 mph93%29.67 "Hg2 mi
1:00 AM25 °FLight snow. Overcast.16 mph93%29.71 "Hg1 mi
12:57 AM25 °FLight snow. Overcast.14 mph93%29.71 "Hg1 mi
12:01 AM25 °FLight snow. Overcast.15 mph93%29.77 "Hg2 mi
11:00 PM
Wed, Nov 25
23 °FLight snow. Overcast.17 mph93%29.83 "Hg5 mi
10:57 PM23 °FLight snow. Overcast.18 mph93%29.84 "Hg5 mi
10:00 PM23 °FLight snow. Overcast.20 mph86%29.89 "Hg3 mi
9:00 PM23 °FLight snow. Overcast.17 mph86%29.96 "Hg6 mi
8:59 PM23 °FLight snow. Overcast.17 mph86%29.96 "Hg6 mi
8:00 PM23 °FLight snow. Overcast.15 mph80%30.04 "Hg9 mi
7:00 PM23 °FLight snow. Mostly cloudy.16 mph80%30.10 "Hg9 mi
6:04 PM21 °FLight snow. Overcast.20 mph86%30.14 "Hg9 mi
5:00 PM21 °FMostly cloudy.14 mph86%30.21 "Hg9 mi
4:00 PM21 °FOvercast.9 mph86%30.27 "Hg9 mi
3:00 PM21 °FPassing clouds.12 mph86%30.32 "Hg9 mi
2:00 PM23 °FSunny.8 mph74%30.34 "Hg9 mi
1:00 PM23 °FScattered clouds.9 mph74%30.36 "Hg9 mi
12:00 PM23 °FOvercast.13 mph80%30.37 "Hg9 mi
11:00 AM23 °FOvercast.12 mph86%30.38 "Hg9 mi
10:00 AM23 °FOvercast.10 mph86%30.38 "Hg9 mi
9:57 AM23 °FOvercast.13 mph86%30.38 "Hg9 mi
9:01 AM21 °FLight snow. Cloudy.8 mph93%30.37 "Hg9 mi
8:01 AM23 °FLight snow. Mostly cloudy.9 mph93%30.37 "Hg1 mi
7:00 AM23 °FMostly cloudy.8 mph86%30.34 "Hg9 mi
Weather by CustomWeather, © 2015

See weather overviewHow to use our weather pages